Weather Roundup
Issued by NWS

Home | Current Version | Previous Version | Text Only | Print | Product List | Glossary On
Versions: 1 2 3 4 5 6 7 8 9 10 11 12 13 14 15 16 17 18 19 20 21 22 23 24 25 26 27 28 29 30 31 32 33 34 35 36 37 38 39 40 41 42 43 44 45 46 47 48 49 50
000
NZUS93 KARX 290059
HRRWXR

CURRENT HOURLY OBSERVATIONS ACROSS
MUCH OF THE UPPER MISSISSIPPI VALLEY
NATIONAL WEATHER SERVICE LA CROSSE WI
800 PM CDT THU APR 28 2016


...SOUTHEAST MINNESOTA...


CITY           SKY/WX    TMP DP  RH WIND       PRES   REMARKS
ROCHESTER      CLOUDY    40  39  97 NE8       30.03R WCI  34
ROCHESTER/MAYO CLOUDY    40  40 100 NE6       30.04R
WINONA         CLOUDY    41  37  87 E7        30.05S
AUSTIN         DRIZZLE   41  37  87 NE6       30.03R
ALBERT LEA     NOT AVBL
DODGE CENTER   CLOUDY    39  37  93 NE8       30.03R WCI  34
PRESTON        CLOUDY    39  36  89 E7        30.03R WCI  34
OWATONNA       DRIZZLE   39  36  87 NE7       30.05R WCI  34
FARIBAULT      NOT AVBL
$$

...ELSEWHERE IN MINNESOTA...


CITY           SKY/WX    TMP DP  RH WIND       PRES   REMARKS
MINNEAPOLIS    LGT RAIN  41  37  86 NE8       30.09R FOG
INTNL FALLS    CLEAR     51  27  39 N6        30.12S
DULUTH         PTCLDY    39  24  55 E12       30.11S WCI  32
RED WING       DRIZZLE   41  37  87 E8G17     30.07R
REDWOOD FALLS  CLOUDY    41  36  82 NE7       30.09R
MANKATO        CLOUDY    41  36  81 NE12      30.07R
WORTHINGTON    CLOUDY    39  36  89 N9        30.06R WCI  33
FAIRMONT       CLOUDY    41  30  65 NE9       30.05R
$$

...SOUTHWEST WISCONSIN...


CITY           SKY/WX    TMP DP  RH WIND       PRES   REMARKS
LA CROSSE      CLOUDY    42  38  85 NE12      30.04S
PRAIRIE DU CHI DRIZZLE   42  39  88 CALM      30.02R
BOSCOBEL       LGT RAIN  43  39  86 E3        30.03R
LONE ROCK      CLOUDY    41  37  87 E8        30.03R FOG
PLATTEVILLE    CLOUDY    42  41  96 NE8       29.99R
FORT MC COY    NOT AVBL
MAUSTON-NEW LI NOT AVBL
VIROQUA        CLOUDY    39  39  99 NE6       30.02R WCI  35
WIS DELLS      CLOUDY    39  37  94 E6        30.03R FOG     WCI  35
$$

...ELSEWHERE IN WISCONSIN...


CITY           SKY/WX    TMP DP  RH WIND       PRES   REMARKS
MILWAUKEE      CLOUDY    40  37  89 NE8       30.01R WCI  34
MADISON        CLOUDY    40  36  86 E7        30.02R
GREEN BAY      CLOUDY    43  35  73 N8        30.06R
EAU CLAIRE     NOT AVBL
BLACK RVR FLS  DRIZZLE   38  38 100 NE8       30.06R WCI  32
MEDFORD        CLOUDY    41  34  76 SE9       30.04R
WAUSAU         LGT RAIN  40  36  86 E7        30.05R
WIS RAPIDS     CLOUDY    41  33  73 NE8       30.07R
MARSHFIELD     LGT RAIN  41  35  79 E7        30.05R
RICE LAKE      CLOUDY    44  35  71 S5        30.09R
$$

...NORTHEAST IOWA...


CITY           SKY/WX    TMP DP  RH WIND       PRES   REMARKS
WATERLOO       CLOUDY    46  43  89 NE8       29.99R
DUBUQUE        CLOUDY    43  42  97 NE9       29.98R FOG
DECORAH        CLOUDY    41  41 100 VRB5      30.00R
MASON CITY     CLOUDY    42  41  96 N9        30.03R
CHARLES CITY   CLOUDY    43  43 100 NE8       30.00R
OELWEIN        CLOUDY    45  45 100 NE10      29.99R
$$

...ELSEWHERE IN IOWA...


CITY           SKY/WX    TMP DP  RH WIND       PRES   REMARKS
DES MOINES     CLOUDY    51  46  83 NW12      29.99S
IOWA CITY      PTCLDY    52  48  86 N6        29.97R
FORT DODGE     CLOUDY    45  39  81 N5        30.02R
MARSHALLTOWN   CLOUDY    48  46  93 N12       29.98R
CEDAR RAPIDS   CLOUDY    48  47  96 NE10      29.96R FOG
$$

...NORTHERN ILLINOIS...


CITY           SKY/WX    TMP DP  RH WIND       PRES   REMARKS
CHICAGO-OHARE  CLOUDY    43  40  89 N9        29.97R
CHICAGO-MIDWAY CLOUDY    47  40  76 N9        29.97R
MOLINE         CLOUDY    54  49  83 E5        29.95R HAZE
ROCKFORD       DRIZZLE   44  40  85 NE9       30.01R
PEORIA         CLOUDY    57  46  66 CALM      29.96R
$$

NOTE: "FAIR" INDICATES FEW OR NO CLOUDS BELOW 12,000 FEET WITH NO
SIGNIFICANT WEATHER AND/OR OBSTRUCTIONS TO VISIBILITY. WIND
SPEEDS ARE IN MILES-PER-HOUR.




USA.gov is the U.S. government's official web portal to all federal, state and local government web resources and services.